TimePDT,TemperatureF,Dew PointF,Humidity,Sea Level PressureIn,VisibilityMPH,Wind Direction,Wind SpeedMPH,Gust SpeedMPH,PrecipitationIn,Events,Conditions,WindDirDegrees,DateUTC
12:53 AM,48.0,44.1,86,29.96,10.0,SE,3.5,-,N/A,,Overcast,140,2013-04-04 07:53:00
1:53 AM,48.9,45.0,86,29.95,10.0,Calm,Calm,-,N/A,,Overcast,0,2013-04-04 08:53:00
2:53 AM,48.9,44.1,83,29.92,10.0,SSE,3.5,-,N/A,,Overcast,150,2013-04-04 09:53:00
3:53 AM,48.0,44.1,86,29.90,10.0,SSE,3.5,-,N/A,,Overcast,160,2013-04-04 10:53:00
4:53 AM,48.9,43.0,80,29.87,10.0,SSE,3.5,-,N/A,,Scattered Clouds,150,2013-04-04 11:53:00
5:53 AM,48.0,43.0,83,29.85,10.0,SSE,5.8,-,N/A,,Overcast,150,2013-04-04 12:53:00
6:53 AM,48.0,43.0,83,29.81,10.0,SE,3.5,-,0.00,,Overcast,140,2013-04-04 13:53:00
7:53 AM,48.9,43.0,80,29.79,10.0,SE,6.9,-,0.00,,Overcast,130,2013-04-04 14:53:00
8:53 AM,50.0,44.1,80,29.78,10.0,East,4.6,-,N/A,,Overcast,90,2013-04-04 15:53:00
9:53 AM,50.0,45.0,83,29.75,10.0,East,3.5,-,0.00,Rain,Light Rain,90,2013-04-04 16:53:00
10:53 AM,48.9,44.1,83,29.74,10.0,East,5.8,-,0.00,,Overcast,100,2013-04-04 17:53:00
11:42 AM,48.9,45.0,86,29.73,10.0,East,6.9,-,N/A,,Overcast,90,2013-04-04 18:42:00
11:53 AM,48.9,45.0,86,29.73,10.0,East,6.9,-,N/A,,Overcast,80,2013-04-04 18:53:00
12:16 PM,50.0,45.0,83,29.71,10.0,East,4.6,-,N/A,,Overcast,90,2013-04-04 19:16:00
12:26 PM,50.0,45.0,83,29.71,10.0,East,4.6,-,N/A,,Overcast,80,2013-04-04 19:26:00
12:50 PM,50.0,44.6,82,29.70,10.0,ENE,4.6,-,N/A,,Overcast,60,2013-04-04 19:50:00
12:53 PM,50.0,45.0,83,29.70,10.0,ENE,4.6,-,N/A,,Overcast,70,2013-04-04 19:53:00
1:14 PM,50.0,45.0,83,29.69,10.0,ENE,4.6,-,N/A,,Overcast,70,2013-04-04 20:14:00
1:53 PM,50.0,45.0,83,29.68,10.0,ESE,4.6,-,N/A,,Overcast,110,2013-04-04 20:53:00
2:53 PM,50.0,46.0,86,29.66,10.0,East,4.6,-,0.00,Rain,Light Rain,100,2013-04-04 21:53:00
3:53 PM,48.9,46.0,90,29.64,9.0,East,6.9,-,0.01,Rain,Light Rain,100,2013-04-04 22:53:00
4:53 PM,48.9,46.9,93,29.61,10.0,East,5.8,-,0.00,,Overcast,90,2013-04-04 23:53:00
5:13 PM,48.9,46.9,93,29.60,8.0,East,5.8,-,0.01,,Overcast,90,2013-04-05 00:13:00
5:53 PM,48.9,46.9,93,29.59,8.0,Calm,Calm,-,0.01,,Overcast,0,2013-04-05 00:53:00
6:53 PM,48.9,46.9,93,29.59,2.5,WNW,5.8,-,0.01,Rain,Light Rain,290,2013-04-05 01:53:00
7:11 PM,48.9,46.9,93,29.58,1.8,WNW,3.5,-,0.01,Rain,Light Rain,290,2013-04-05 02:11:00
7:21 PM,48.9,46.9,93,29.58,2.5,West,4.6,-,0.01,Rain,Light Rain,280,2013-04-05 02:21:00
7:30 PM,48.9,46.9,93,29.58,3.0,WNW,3.5,-,0.01,Rain,Light Rain,290,2013-04-05 02:30:00
7:53 PM,48.9,48.0,97,29.58,5.0,Calm,Calm,-,0.01,Rain,Light Rain,0,2013-04-05 02:53:00
8:29 PM,48.9,46.9,93,29.58,5.0,SSE,4.6,-,0.00,Rain,Light Rain,150,2013-04-05 03:29:00
8:53 PM,50.0,48.0,93,29.60,7.0,ESE,4.6,-,0.00,Rain,Light Rain,110,2013-04-05 03:53:00
9:20 PM,50.0,48.0,93,29.60,9.0,Calm,Calm,-,0.00,Rain,Light Rain,0,2013-04-05 04:20:00
9:53 PM,50.0,48.0,93,29.62,7.0,Calm,Calm,-,0.00,Rain,Light Rain,0,2013-04-05 04:53:00
10:31 PM,50.0,48.0,93,29.63,7.0,Calm,Calm,-,0.01,Rain,Light Rain,0,2013-04-05 05:31:00
10:53 PM,50.0,48.0,93,29.64,6.0,SW,3.5,-,0.02,Rain,Light Rain,220,2013-04-05 05:53:00
11:53 PM,48.9,46.9,93,29.63,9.0,South,3.5,-,0.02,Rain,Light Rain,180,2013-04-05 06:53:00